,,Stat6,,Stat2,,Stat8,,Stat9,,Stat10,,Wind1,,Wind1,
time,status,PA1M_AVG,status,PR1M_SUM,status,RH1M_AVG,status,SR1M_AVG,status,TA1M_AVG,status,W1dAve1m,status,W1sAve1m,
2009-01-01, 00:00:00,VALID,916.823,VALID,0,VALID,100,VALID,-0.0679233,VALID,18.4608,VALID,38,VALID,0,
2009-01-01, 00:01:00,VALID,916.8,VALID,0,VALID,100,VALID,0,VALID,18.4569,VALID,38,VALID,0,
2009-01-01, 00:02:00,VALID,916.782,VALID,0,VALID,100,VALID,0,VALID,18.5412,VALID,38,VALID,0,
2009-01-01, 00:03:00,VALID,916.744,VALID,0,VALID,100,VALID,-0.0679233,VALID,18.5579,VALID,38,VALID,0,
2009-01-01, 00:04:00,VALID,916.748,VALID,0,VALID,100,VALID,-0.0679233,VALID,18.5317,VALID,38,VALID,0,
2009-01-01, 00:05:00,VALID,916.73,VALID,0,VALID,100,VALID,-0.0169808,VALID,18.5187,VALID,38,VALID,0,
2009-01-01, 00:06:00,VALID,916.693,VALID,0,VALID,100,VALID,-0.0169808,VALID,18.4279,VALID,48,VALID,0,
2009-01-01, 00:07:00,VALID,916.649,VALID,0,VALID,100,VALID,-0.0849042,VALID,18.386,VALID,58,VALID,0,
2009-01-01, 00:08:00,VALID,916.627,VALID,0,VALID,100,VALID,-0.0509425,VALID,18.4027,VALID,58,VALID,0,
2009-01-01, 00:09:00,VALID,916.594,VALID,0,VALID,100,VALID,-0.0169808,VALID,18.3633,VALID,58,VALID,0,
2009-01-01, 00:10:00,VALID,916.59,VALID,0,VALID,100,VALID,-0.0679233,VALID,18.3665,VALID,58,VALID,0,
2009-01-01, 00:11:00,VALID,916.574,VALID,0,VALID,100,VALID,-0.0509425,VALID,18.4057,VALID,58,VALID,0,
2009-01-01, 00:12:00,VALID,916.558,VALID,0,VALID,100,VALID,-0.0169808,VALID,18.4212,VALID,58,VALID,0,
2009-01-01, 00:13:00,VALID,916.546,VALID,0,VALID,100,VALID,-0.0509425,VALID,18.4054,VALID,58,VALID,0,
2009-01-01, 00:14:00,VALID,916.521,VALID,0,VALID,100,VALID,-0.0169808,VALID,18.3213,VALID,58,VALID,0,
2009-01-01, 00:15:00,VALID,916.521,VALID,0,VALID,100,VALID,-0.0169808,VALID,18.2657,VALID,129,VALID,0,
2009-01-01, 00:16:00,VALID,916.525,VALID,0,VALID,100,VALID,-0.0169808,VALID,18.2692,VALID,149,VALID,0,
2009-01-01, 00:17:00,VALID,916.508,VALID,0,VALID,100,VALID,0,VALID,18.282,VALID,151,VALID,0,
2009-01-01, 00:18:00,VALID,916.507,VALID,0,VALID,100,VALID,-0.0169808,VALID,18.2947,VALID,160,VALID,0.0163872,
2009-01-01, 00:19:00,VALID,916.49,VALID,0,VALID,100,VALID,-0.0849042,VALID,18.3144,VALID,173,VALID,0.0142045,
2009-01-01, 00:20:00,VALID,916.485,VALID,0,VALID,100,VALID,-0.0169808,VALID,18.3531,VALID,173,VALID,0,
2009-01-01, 00:21:00,VALID,916.468,VALID,0,VALID,100,VALID,-0.0169808,VALID,18.3758,VALID,173,VALID,0,
2009-01-01, 00:22:00,VALID,916.45,VALID,0,VALID,100,VALID,0.0169808,VALID,18.382,VALID,173,VALID,0,
2009-01-01, 00:23:00,VALID,916.411,VALID,0,VALID,100,VALID,0.101885,VALID,18.3582,VALID,173,VALID,0,
2009-01-01, 00:24:00,VALID,916.404,VALID,0,VALID,100,VALID,0.0679233,VALID,18.2484,VALID,173,VALID,0,
2009-01-01, 00:25:00,VALID,916.372,VALID,0,VALID,100,VALID,0.0339617,VALID,18.2155,VALID,173,VALID,0,
2009-01-01, 00:26:00,VALID,916.351,VALID,0,VALID,100,VALID,0.0679233,VALID,18.2801,VALID,173,VALID,0,
2009-01-01, 00:27:00,VALID,916.329,VALID,0,VALID,100,VALID,0.0509425,VALID,18.2843,VALID,153,VALID,0,
2009-01-01, 00:28:00,VALID,916.319,VALID,0,VALID,100,VALID,0.0849042,VALID,18.2127,VALID,151,VALID,0,
2009-01-01, 00:29:00,VALID,916.32,VALID,0,VALID,100,VALID,0.0849042,VALID,18.2023,VALID,113,VALID,0,
2009-01-01, 00:30:00,VALID,916.305,VALID,0,VALID,100,VALID,0.0849042,VALID,18.2317,VALID,113,VALID,0,
2009-01-01, 00:31:00,VALID,916.304,VALID,0,VALID,100,VALID,0.101885,VALID,18.2674,VALID,113,VALID,0,
2009-01-01, 00:32:00,VALID,916.272,VALID,0,VALID,100,VALID,0.0509425,VALID,18.2449,VALID,110,VALID,0,
2009-01-01, 00:33:00,VALID,916.247,VALID,0,VALID,100,VALID,0.0849042,VALID,18.3616,VALID,107,VALID,0,
2009-01-01, 00:34:00,VALID,916.241,VALID,0,VALID,100,VALID,0.0849042,VALID,18.3584,VALID,107,VALID,0,
2009-01-01, 00:35:00,VALID,916.207,VALID,0,VALID,100,VALID,0.0339617,VALID,18.3549,VALID,96,VALID,0,
2009-01-01, 00:36:00,VALID,916.191,VALID,0,VALID,100,VALID,0.0509425,VALID,18.4821,VALID,88,VALID,0,
2009-01-01, 00:37:00,VALID,916.175,VALID,0,VALID,100,VALID,0,VALID,18.5644,VALID,88,VALID,0,
2009-01-01, 00:38:00,VALID,916.158,VALID,0,VALID,100,VALID,-0.0679233,VALID,18.5023,VALID,88,VALID,0,
2009-01-01, 00:39:00,VALID,916.14,VALID,0,VALID,100,VALID,-0.0849042,VALID,18.4766,VALID,88,VALID,0,
2009-01-01, 00:40:00,VALID,916.107,VALID,0,VALID,99.9433,VALID,-0.0169808,VALID,18.4212,VALID,90,VALID,0,
2009-01-01, 00:41:00,VALID,916.096,VALID,0,VALID,99.5552,VALID,-0.0169808,VALID,18.285,VALID,145,VALID,0,
2009-01-01, 00:42:00,VALID,916.083,VALID,0,VALID,100,VALID,-0.0169808,VALID,18.2949,VALID,151,VALID,0,
2009-01-01, 00:43:00,VALID,916.079,VALID,0,VALID,100,VALID,-0.0679233,VALID,18.3081,VALID,157,VALID,0,
2009-01-01, 00:44:00,VALID,916.111,VALID,0,VALID,100,VALID,-0.0509425,VALID,18.3144,VALID,156,VALID,0.0348837,
2009-01-01, 00:45:00,VALID,916.106,VALID,0,VALID,100,VALID,-0.0339617,VALID,18.3401,VALID,148,VALID,0.0712426,
2009-01-01, 00:46:00,VALID,916.086,VALID,0,VALID,100,VALID,-0.0679233,VALID,18.3114,VALID,148,VALID,0,
2009-01-01, 00:47:00,VALID,916.058,VALID,0,VALID,100,VALID,-0.0509425,VALID,18.2623,VALID,148,VALID,0,
2009-01-01, 00:48:00,VALID,916.034,VALID,0,VALID,100,VALID,-0.0509425,VALID,18.2266,VALID,152,VALID,0,
2009-01-01, 00:49:00,VALID,916.028,VALID,0,VALID,100,VALID,-0.0679233,VALID,18.2525,VALID,155,VALID,0.0799419,
2009-01-01, 00:50:00,VALID,916.024,VALID,0,VALID,100,VALID,-0.0509425,VALID,18.301,VALID,151,VALID,0,
2009-01-01, 00:51:00,VALID,916.024,VALID,0,VALID,100,VALID,0,VALID,18.3074,VALID,151,VALID,0,
2009-01-01, 00:52:00,VALID,916.028,VALID,0,VALID,100,VALID,-0.0849042,VALID,18.3693,VALID,144,VALID,0,
2009-01-01, 00:53:00,VALID,916.029,VALID,0,VALID,100,VALID,-0.0509425,VALID,18.3626,VALID,123,VALID,0,
2009-01-01, 00:54:00,VALID,916.048,VALID,0,VALID,100,VALID,-0.0509425,VALID,18.36,VALID,120,VALID,0,
2009-01-01, 00:55:00,VALID,916.046,VALID,0,VALID,100,VALID,-0.0509425,VALID,18.3339,VALID,148,VALID,0,
2009-01-01, 00:56:00,VALID,916.027,VALID,0,VALID,100,VALID,-0.0509425,VALID,18.3665,VALID,154,VALID,0,
2009-01-01, 00:57:00,VALID,916.013,VALID,0,VALID,100,VALID,0,VALID,18.3855,VALID,155,VALID,0,
2009-01-01, 00:58:00,VALID,915.98,VALID,0,VALID,100,VALID,-0.0679233,VALID,18.3695,VALID,155,VALID,0,
2009-01-01, 00:59:00,VALID,915.93,VALID,0,VALID,100,VALID,-0.0679233,VALID,18.3501,VALID,154,VALID,0,
2009-01-01, 01:00:00,VALID,915.909,VALID,0,VALID,100,VALID,-0.0679233,VALID,18.3503,VALID,141,VALID,0,
2009-01-01, 01:01:00,VALID,915.909,VALID,0,VALID,100,VALID,-0.0509425,VALID,18.3209,VALID,141,VALID,0,
2009-01-01, 01:02:00,VALID,915.913,VALID,0,VALID,100,VALID,-0.0849042,VALID,18.3139,VALID,141,VALID,0,
2009-01-01, 01:03:00,VALID,915.898,VALID,0,VALID,100,VALID,-0.0509425,VALID,18.3241,VALID,133,VALID,0,
2009-01-01, 01:04:00,VALID,915.909,VALID,0,VALID,100,VALID,-0.0849042,VALID,18.3471,VALID,129,VALID,0.034446,
2009-01-01, 01:05:00,VALID,915.9,VALID,0,VALID,100,VALID,-0.0509425,VALID,18.3371,VALID,139,VALID,0,
2009-01-01, 01:06:00,VALID,915.891,VALID,0,VALID,100,VALID,-0.0339617,VALID,18.3139,VALID,116,VALID,0,
2009-01-01, 01:07:00,VALID,915.871,VALID,0,VALID,100,VALID,-0.0339617,VALID,18.278,VALID,86,VALID,0.00605469,
2009-01-01, 01:08:00,VALID,915.865,VALID,0,VALID,100,VALID,0,VALID,18.3109,VALID,92,VALID,0,
2009-01-01, 01:09:00,VALID,915.879,VALID,0,VALID,100,VALID,-0.0169808,VALID,18.3044,VALID,93,VALID,0,
2009-01-01, 01:10:00,VALID,915.89,VALID,0,VALID,100,VALID,-0.0339617,VALID,18.3239,VALID,91,VALID,0,
2009-01-01, 01:11:00,VALID,915.872,VALID,0,VALID,100,VALID,-0.0169808,VALID,18.272,VALID,82,VALID,0,
2009-01-01, 01:12:00,VALID,915.86,VALID,0,VALID,100,VALID,-0.0339617,VALID,18.2264,VALID,61,VALID,0,
2009-01-01, 01:13:00,VALID,915.841,VALID,0,VALID,100,VALID,-0.0169808,VALID,18.1031,VALID,46,VALID,0,
2009-01-01, 01:14:00,VALID,915.833,VALID,0,VALID,100,VALID,-0.0339617,VALID,18.0871,VALID,54,VALID,0,
2009-01-01, 01:15:00,VALID,915.827,VALID,0,VALID,100,VALID,-0.0339617,VALID,18.0642,VALID,55,VALID,0.236979,
2009-01-01, 01:16:00,VALID,915.827,VALID,0,VALID,100,VALID,-0.0509425,VALID,18.1488,VALID,54,VALID,0,
2009-01-01, 01:17:00,VALID,915.809,VALID,0,VALID,100,VALID,-0.0509425,VALID,18.2199,VALID,53,VALID,0,
2009-01-01, 01:18:00,VALID,915.818,VALID,0,VALID,100,VALID,0,VALID,18.2328,VALID,26,VALID,0,
2009-01-01, 01:19:00,VALID,915.822,VALID,0,VALID,100,VALID,0,VALID,18.278,VALID,308,VALID,0,
2009-01-01, 01:20:00,VALID,915.802,VALID,0,VALID,100,VALID,-0.0169808,VALID,18.3334,VALID,308,VALID,0,
2009-01-01, 01:21:00,VALID,915.804,VALID,0,VALID,100,VALID,-0.0339617,VALID,18.3269,VALID,3,VALID,0,
2009-01-01, 01:22:00,VALID,915.797,VALID,0,VALID,100,VALID,-0.0169808,VALID,18.3563,VALID,12,VALID,0,
2009-01-01, 01:23:00,VALID,915.804,VALID,0,VALID,100,VALID,-0.0509425,VALID,18.3758,VALID,5,VALID,0,
2009-01-01, 01:24:00,VALID,915.827,VALID,0,VALID,100,VALID,-0.0339617,VALID,18.4376,VALID,355,VALID,0,
2009-01-01, 01:25:00,VALID,915.827,VALID,0,VALID,100,VALID,0,VALID,18.4858,VALID,347,VALID,0,
2009-01-01, 01:26:00,VALID,915.836,VALID,0,VALID,100,VALID,-0.0169808,VALID,18.525,VALID,261,VALID,0,
2009-01-01, 01:27:00,VALID,915.838,VALID,0,VALID,100,VALID,-0.0509425,VALID,18.5574,VALID,257,VALID,0,
2009-01-01, 01:28:00,VALID,915.843,VALID,0,VALID,100,VALID,-0.0509425,VALID,18.5771,VALID,291,VALID,0.0850291,
2009-01-01, 01:29:00,VALID,915.843,VALID,0,VALID,100,VALID,-0.0339617,VALID,18.6158,VALID,354,VALID,0.148624,
2009-01-01, 01:30:00,VALID,915.845,VALID,0,VALID,100,VALID,-0.0509425,VALID,18.7198,VALID,355,VALID,0,
2009-01-01, 01:31:00,VALID,915.826,VALID,0,VALID,100,VALID,-0.0169808,VALID,18.768,VALID,343,VALID,0,
2009-01-01, 01:32:00,VALID,915.807,VALID,0,VALID,100,VALID,0,VALID,18.7775,INVALID,360,VALID,0,
2009-01-01, 01:33:00,VALID,915.777,VALID,0,VALID,100,VALID,-0.0169808,VALID,18.7907,INVALID,360,VALID,0,
2009-01-01, 01:34:00,VALID,915.728,VALID,0,VALID,100,VALID,-0.0339617,VALID,18.8229,VALID,360,VALID,0.0307049,
2009-01-01, 01:35:00,VALID,915.752,VALID,0,VALID,100,VALID,-0.0339617,VALID,18.8813,VALID,17,VALID,0.352108,
2009-01-01, 01:36:00,VALID,915.781,VALID,0,VALID,100,VALID,-0.0339617,VALID,18.9337,VALID,4,VALID,0.403993,
2009-01-01, 01:37:00,VALID,915.761,VALID,0,VALID,99.9903,VALID,-0.0339617,VALID,18.9691,VALID,23,VALID,0,
2009-01-01, 01:38:00,VALID,915.717,VALID,0,VALID,99.9494,VALID,-0.0169808,VALID,19.0083,VALID,19,VALID,0,
2009-01-01, 01:39:00,VALID,915.698,VALID,0,VALID,99.8973,VALID,-0.0509425,VALID,19.0377,VALID,18,VALID,0,
2009-01-01, 01:40:00,VALID,915.693,VALID,0,VALID,99.8273,VALID,-0.0509425,VALID,19.0699,VALID,10,VALID,0.0513139,
2009-01-01, 01:41:00,VALID,915.674,VALID,0,VALID,99.7078,VALID,0,VALID,19.1088,VALID,360,VALID,0.289621,
2009-01-01, 01:42:00,VALID,915.647,VALID,0,VALID,99.4547,VALID,-0.0509425,VALID,19.155,VALID,347,VALID,0.187137,
2009-01-01, 01:43:00,VALID,915.631,VALID,0,VALID,99.236,VALID,-0.0679233,VALID,19.2291,VALID,352,VALID,0.00581395,
2009-01-01, 01:44:00,VALID,915.605,VALID,0,VALID,98.9283,VALID,-0.0679233,VALID,19.2713,VALID,8,VALID,0,
2009-01-01, 01:45:00,VALID,915.592,VALID,0,VALID,98.7185,VALID,-0.0339617,VALID,19.2875,VALID,4,VALID,0.00111607,
2009-01-01, 01:46:00,VALID,915.55,VALID,0,VALID,98.4934,VALID,-0.0849042,VALID,19.3202,VALID,15,VALID,0.0664063,
2009-01-01, 01:47:00,VALID,915.528,VALID,0,VALID,98.3039,VALID,-0.0679233,VALID,19.3329,VALID,18,VALID,0.36471,
2009-01-01, 01:48:00,VALID,915.507,VALID,0,VALID,98.1615,VALID,-0.0339617,VALID,19.3589,VALID,342,VALID,0.236852,
2009-01-01, 01:49:00,VALID,915.483,VALID,0,VALID,97.9987,VALID,-0.0849042,VALID,19.3846,VALID,8,VALID,0.343941,
2009-01-01, 01:50:00,VALID,915.471,VALID,0,VALID,97.7444,VALID,-0.0509425,VALID,19.3913,VALID,22,VALID,0,
2009-01-01, 01:51:00,VALID,915.46,VALID,0,VALID,97.766,VALID,-0.0509425,VALID,19.3791,VALID,20,VALID,0.105283,
2009-01-01, 01:52:00,VALID,915.434,VALID,0,VALID,97.78,VALID,-0.0339617,VALID,19.3559,VALID,23,VALID,0.82472,
2009-01-01, 01:53:00,VALID,915.414,VALID,0,VALID,97.7381,VALID,-0.0339617,VALID,19.3686,VALID,27,VALID,0.147135,
2009-01-01, 01:54:00,VALID,915.386,VALID,0,VALID,97.6185,VALID,-0.0509425,VALID,19.3946,VALID,21,VALID,0.00093006,
2009-01-01, 01:55:00,VALID,915.371,VALID,0,VALID,97.5181,VALID,-0.0509425,VALID,19.4108,VALID,12,VALID,0.171484,
2009-01-01, 01:56:00,VALID,915.371,VALID,0,VALID,97.3413,VALID,-0.0679233,VALID,19.4435,VALID,3,VALID,0.157848,
2009-01-01, 01:57:00,VALID,915.362,VALID,0,VALID,97.1811,VALID,-0.0679233,VALID,19.4632,VALID,13,VALID,0.164435,
2009-01-01, 01:58:00,VALID,915.339,VALID,0,VALID,97.0209,VALID,-0.0849042,VALID,19.5021,VALID,4,VALID,0,
2009-01-01, 01:59:00,VALID,915.315,VALID,0,VALID,96.8429,VALID,-0.0849042,VALID,19.5343,VALID,6,VALID,0.137429,
2009-01-01, 02:00:00,VALID,915.291,VALID,0,VALID,96.6127,VALID,-0.0849042,VALID,19.567,VALID,9,VALID,0.539931,
2009-01-01, 02:01:00,VALID,915.27,VALID,0,VALID,96.4156,VALID,-0.0509425,VALID,19.5763,VALID,20,VALID,0.150112,
2009-01-01, 02:02:00,VALID,915.276,VALID,0,VALID,96.3101,VALID,-0.101885,VALID,19.5997,VALID,21,VALID,0.00237772,
2009-01-01, 02:03:00,VALID,915.277,VALID,0,VALID,96.249,VALID,-0.0849042,VALID,19.6065,VALID,20,VALID,0.0876736,
2009-01-01, 02:04:00,VALID,915.268,VALID,0,VALID,96.2299,VALID,-0.0849042,VALID,19.5902,VALID,23,VALID,0.00457317,
2009-01-01, 02:05:00,VALID,915.252,VALID,0,VALID,96.2414,VALID,-0.0679233,VALID,19.5805,VALID,23,VALID,0.121761,
2009-01-01, 02:06:00,VALID,915.268,VALID,0,VALID,96.2312,VALID,-0.101885,VALID,19.564,VALID,18,VALID,0,
2009-01-01, 02:07:00,VALID,915.256,VALID,0,VALID,96.1931,VALID,-0.0679233,VALID,19.5703,VALID,9,VALID,0.0012718,
2009-01-01, 02:08:00,VALID,915.247,VALID,0,VALID,96.0824,VALID,-0.0169808,VALID,19.5952,VALID,4,VALID,0,
2009-01-01, 02:09:00,VALID,915.225,VALID,0,VALID,95.9756,VALID,0.0169808,VALID,19.6047,VALID,18,VALID,0.135617,
2009-01-01, 02:10:00,VALID,915.24,VALID,0,VALID,95.8586,VALID,0.0169808,VALID,19.6244,VALID,4,VALID,0.0307173,
2009-01-01, 02:11:00,VALID,915.237,VALID,0,VALID,95.8001,VALID,0.0169808,VALID,19.6337,VALID,23,VALID,0.122337,
2009-01-01, 02:12:00,VALID,915.23,VALID,0,VALID,95.7111,VALID,0.0339617,VALID,19.6339,VALID,19,VALID,0.0371094,
2009-01-01, 02:13:00,VALID,915.222,VALID,0,VALID,95.8764,VALID,0.0169808,VALID,19.6042,VALID,1,VALID,0.0959821,
2009-01-01, 02:14:00,VALID,915.198,VALID,0,VALID,95.9451,VALID,0.0169808,VALID,19.5885,VALID,13,VALID,0.00111607,
2009-01-01, 02:15:00,VALID,915.164,VALID,0,VALID,96.0341,VALID,0.0509425,VALID,19.5625,VALID,9,VALID,0.00203804,
2009-01-01, 02:16:00,VALID,915.139,VALID,0,VALID,96.0926,VALID,0,VALID,19.563,VALID,17,VALID,0,
2009-01-01, 02:17:00,VALID,915.118,VALID,0,VALID,96.057,VALID,0.0169808,VALID,19.5693,VALID,19,VALID,0.0414244,
2009-01-01, 02:18:00,VALID,915.088,VALID,0,VALID,95.9769,VALID,0,VALID,19.589,VALID,359,VALID,0.117383,
2009-01-01, 02:19:00,VALID,915.064,VALID,0,VALID,95.8205,VALID,0,VALID,19.6274,VALID,16,VALID,0.122954,
2009-01-01, 02:20:00,VALID,915.045,VALID,0,VALID,95.6298,VALID,0.0169808,VALID,19.6596,VALID,14,VALID,0,
2009-01-01, 02:21:00,VALID,915.022,VALID,0,VALID,95.4288,VALID,0,VALID,19.7021,VALID,28,VALID,0,
2009-01-01, 02:22:00,VALID,915.017,VALID,0,VALID,95.2559,VALID,-0.0339617,VALID,19.7225,VALID,11,VALID,0.0216346,
2009-01-01, 02:23:00,VALID,915.018,VALID,0,VALID,95.1999,VALID,-0.0849042,VALID,19.7362,VALID,14,VALID,0,
2009-01-01, 02:24:00,VALID,915.02,VALID,0,VALID,95.1745,VALID,-0.0679233,VALID,19.7293,VALID,12,VALID,0.0012718,
2009-01-01, 02:25:00,VALID,915.03,VALID,0,VALID,95.1542,VALID,-0.0849042,VALID,19.7198,VALID,20,VALID,0,
2009-01-01, 02:26:00,VALID,915.053,VALID,0,VALID,95.1122,VALID,-0.101885,VALID,19.7168,VALID,23,VALID,0,
2009-01-01, 02:27:00,VALID,915.033,VALID,0,VALID,95.0613,VALID,-0.0849042,VALID,19.7068,VALID,14,VALID,0,
2009-01-01, 02:28:00,VALID,915.024,VALID,0,VALID,94.9571,VALID,-0.0679233,VALID,19.7198,VALID,25,VALID,0,
2009-01-01, 02:29:00,VALID,914.974,VALID,0,VALID,94.8642,VALID,-0.0849042,VALID,19.7263,VALID,29,VALID,0.257626,
2009-01-01, 02:30:00,VALID,914.961,VALID,0,VALID,94.6722,VALID,-0.0849042,VALID,19.7495,VALID,37,VALID,0.0078125,
2009-01-01, 02:31:00,VALID,914.952,VALID,0,VALID,94.5972,VALID,-0.0849042,VALID,19.7847,VALID,43,VALID,0,
2009-01-01, 02:32:00,VALID,914.95,VALID,0,VALID,94.4955,VALID,-0.0679233,VALID,19.7847,VALID,31,VALID,0,
2009-01-01, 02:33:00,VALID,914.938,VALID,0,VALID,94.3569,VALID,-0.101885,VALID,19.7917,VALID,35,VALID,0.0252544,
2009-01-01, 02:34:00,VALID,914.914,VALID,0,VALID,94.2793,VALID,-0.101885,VALID,19.7784,VALID,13,VALID,0.105655,
2009-01-01, 02:35:00,VALID,914.904,VALID,0,VALID,94.2971,VALID,-0.101885,VALID,19.743,VALID,18,VALID,0.485828,
2009-01-01, 02:36:00,VALID,914.901,VALID,0,VALID,94.3111,VALID,-0.101885,VALID,19.7395,VALID,11,VALID,1.26502,
2009-01-01, 02:37:00,VALID,914.883,VALID,0,VALID,94.2056,VALID,-0.0339617,VALID,19.7644,VALID,19,VALID,1.81076,
2009-01-01, 02:38:00,VALID,914.877,VALID,0,VALID,94.0797,VALID,0,VALID,19.7926,VALID,16,VALID,1.27846,
2009-01-01, 02:39:00,VALID,914.859,VALID,0,VALID,94.1076,VALID,0.0849042,VALID,19.7954,VALID,341,VALID,0.172828,
2009-01-01, 02:40:00,VALID,914.85,VALID,0,VALID,94.2946,VALID,0.0169808,VALID,19.7662,VALID,5,VALID,0.00628811,
2009-01-01, 02:41:00,VALID,914.84,VALID,0,VALID,94.4764,VALID,0.0679233,VALID,19.7243,VALID,20,VALID,0.319965,
2009-01-01, 02:42:00,VALID,914.838,VALID,0,VALID,94.7167,VALID,0.0169808,VALID,19.6686,VALID,21,VALID,0.4913,
2009-01-01, 02:43:00,VALID,914.834,VALID,0,VALID,94.8871,VALID,0.0509425,VALID,19.6559,VALID,19,VALID,0.354167,
2009-01-01, 02:44:00,VALID,914.822,VALID,0,VALID,94.9838,VALID,0.0509425,VALID,19.6524,VALID,16,VALID,0.636186,
2009-01-01, 02:45:00,VALID,914.799,VALID,0,VALID,94.9622,VALID,0.0169808,VALID,19.6724,VALID,15,VALID,1.05007,
2009-01-01, 02:46:00,VALID,914.79,VALID,0,VALID,94.9138,VALID,0.0679233,VALID,19.6918,VALID,31,VALID,1.14329,
2009-01-01, 02:47:00,VALID,914.797,VALID,0,VALID,94.9037,VALID,0.0679233,VALID,19.6913,VALID,21,VALID,1.07051,
2009-01-01, 02:48:00,VALID,914.814,VALID,0,VALID,94.8884,VALID,0.0679233,VALID,19.6853,VALID,2,VALID,0.96439,
2009-01-01, 02:49:00,VALID,914.833,VALID,0,VALID,94.9469,VALID,0.0339617,VALID,19.6818,VALID,10,VALID,0.950347,
2009-01-01, 02:50:00,VALID,914.82,VALID,0,VALID,94.9342,VALID,0.0339617,VALID,19.6921,VALID,7,VALID,0.989931,
2009-01-01, 02:51:00,VALID,914.841,VALID,0,VALID,94.7676,VALID,0.0509425,VALID,19.7275,VALID,14,VALID,0.356585,
2009-01-01, 02:52:00,VALID,914.845,VALID,0,VALID,94.5285,VALID,0.0169808,VALID,19.7637,VALID,24,VALID,0,
2009-01-01, 02:53:00,VALID,914.881,VALID,0,VALID,94.4357,VALID,-0.0509425,VALID,19.7872,VALID,13,VALID,0.00111607,
2009-01-01, 02:54:00,VALID,914.889,VALID,0,VALID,94.4065,VALID,-0.0169808,VALID,19.7874,VALID,16,VALID,0,
2009-01-01, 02:55:00,VALID,914.903,VALID,0,VALID,94.4281,VALID,-0.0339617,VALID,19.7644,VALID,10,VALID,0,
2009-01-01, 02:56:00,VALID,914.907,VALID,0,VALID,94.5044,VALID,-0.101885,VALID,19.7907,VALID,352,VALID,0,
2009-01-01, 02:57:00,VALID,914.909,VALID,0,VALID,94.4497,VALID,-0.101885,VALID,19.8136,VALID,7,VALID,0.182173,
2009-01-01, 02:58:00,VALID,914.899,VALID,0,VALID,94.3531,VALID,-0.0509425,VALID,19.8196,VALID,34,VALID,0.411701,
2009-01-01, 02:59:00,VALID,914.88,VALID,0,VALID,94.3442,VALID,-0.0679233,VALID,19.8298,VALID,18,VALID,1.39249,
2009-01-01, 03:00:00,VALID,914.835,VALID,0,VALID,94.259,VALID,-0.0849042,VALID,19.8488,VALID,49,VALID,1.53854,
2009-01-01, 03:01:00,VALID,914.843,VALID,0,VALID,93.9868,VALID,-0.0509425,VALID,19.8975,VALID,22,VALID,0.537246,
2009-01-01, 03:02:00,VALID,914.833,VALID,0,VALID,93.8063,VALID,-0.0849042,VALID,19.9234,VALID,25,VALID,0.0217226,
2009-01-01, 03:03:00,VALID,914.84,VALID,0,VALID,93.7579,VALID,-0.0679233,VALID,19.9332,VALID,23,VALID,0.0912064,
2009-01-01, 03:04:00,VALID,914.829,VALID,0,VALID,93.8495,VALID,-0.0679233,VALID,19.9239,VALID,11,VALID,0.432049,
2009-01-01, 03:05:00,VALID,914.823,VALID,0,VALID,93.9487,VALID,-0.0339617,VALID,19.9204,VALID,38,VALID,0.0955669,
2009-01-01, 03:06:00,VALID,914.811,VALID,0,VALID,94.1204,VALID,-0.0679233,VALID,19.888,VALID,35,VALID,0.00635901,
2009-01-01, 03:07:00,VALID,914.817,VALID,0,VALID,94.3187,VALID,-0.0509425,VALID,19.8526,VALID,30,VALID,0.516146,
2009-01-01, 03:08:00,VALID,914.797,VALID,0,VALID,94.4128,VALID,-0.0509425,VALID,19.8129,VALID,15,VALID,0.139881,
2009-01-01, 03:09:00,VALID,914.777,VALID,0,VALID,94.381,VALID,-0.0339617,VALID,19.8328,VALID,17,VALID,0.248633,
2009-01-01, 03:10:00,VALID,914.771,VALID,0,VALID,94.3505,VALID,-0.0339617,VALID,19.8453,VALID,11,VALID,0.270647,
2009-01-01, 03:11:00,VALID,914.766,VALID,0,VALID,94.3632,VALID,-0.0679233,VALID,19.8488,VALID,11,VALID,0.0606831,
2009-01-01, 03:12:00,VALID,914.773,VALID,0,VALID,94.3759,VALID,-0.0679233,VALID,19.8293,VALID,17,VALID,0,
2009-01-01, 03:13:00,VALID,914.744,VALID,0,VALID,94.4014,VALID,-0.101885,VALID,19.8134,VALID,23,VALID,0,
2009-01-01, 03:14:00,VALID,914.723,VALID,0,VALID,94.4128,VALID,-0.101885,VALID,19.8273,VALID,26,VALID,0,
2009-01-01, 03:15:00,VALID,914.715,VALID,0,VALID,94.4548,VALID,-0.0339617,VALID,19.7971,VALID,38,VALID,0,
2009-01-01, 03:16:00,VALID,914.702,VALID,0,VALID,94.5095,VALID,-0.0509425,VALID,19.7934,VALID,21,VALID,0.000762195,
2009-01-01, 03:17:00,VALID,914.69,VALID,0,VALID,94.5133,VALID,-0.0679233,VALID,19.7974,VALID,27,VALID,0.000558036,
2009-01-01, 03:18:00,VALID,914.678,VALID,0,VALID,94.512,VALID,-0.0849042,VALID,19.7909,VALID,38,VALID,0.322674,
2009-01-01, 03:19:00,VALID,914.669,VALID,0,VALID,94.4624,VALID,-0.0339617,VALID,19.8131,VALID,7,VALID,0.155523,
2009-01-01, 03:20:00,VALID,914.688,VALID,0,VALID,94.3505,VALID,-0.101885,VALID,19.8298,VALID,20,VALID,0,
2009-01-01, 03:21:00,VALID,914.668,VALID,0,VALID,94.3721,VALID,-0.0339617,VALID,19.8104,VALID,15,VALID,0,
2009-01-01, 03:22:00,VALID,914.661,VALID,0,VALID,94.5044,VALID,-0.0169808,VALID,19.7971,VALID,15,VALID,0,
2009-01-01, 03:23:00,VALID,914.655,VALID,0,VALID,94.5578,VALID,-0.0509425,VALID,19.7907,VALID,14,VALID,0.0989583,
2009-01-01, 03:24:00,VALID,914.633,VALID,0,VALID,94.5565,VALID,-0.0509425,VALID,19.7874,VALID,21,VALID,0.00292969,
2009-01-01, 03:25:00,VALID,914.623,VALID,0,VALID,94.5336,VALID,-0.0679233,VALID,19.7936,VALID,24,VALID,0.00106534,
2009-01-01, 03:26:00,VALID,914.621,VALID,0,VALID,94.5413,VALID,-0.0339617,VALID,19.8009,VALID,22,VALID,0,
2009-01-01, 03:27:00,VALID,914.623,VALID,0,VALID,94.4955,VALID,-0.0169808,VALID,19.8036,VALID,21,VALID,0,
2009-01-01, 03:28:00,VALID,914.617,VALID,0,VALID,94.4484,VALID,0,VALID,19.8096,VALID,20,VALID,0,
2009-01-01, 03:29:00,VALID,914.599,VALID,0,VALID,94.3721,VALID,-0.0509425,VALID,19.8164,VALID,20,VALID,0,
2009-01-01, 03:30:00,VALID,914.59,VALID,0,VALID,94.3556,VALID,-0.0679233,VALID,19.8263,VALID,23,VALID,0.0791903,
2009-01-01, 03:31:00,VALID,914.554,VALID,0,VALID,94.3302,VALID,-0.0339617,VALID,19.8196,VALID,37,VALID,0,
2009-01-01, 03:32:00,VALID,914.517,VALID,0,VALID,94.264,VALID,-0.0509425,VALID,19.8199,VALID,33,VALID,0,
2009-01-01, 03:33:00,VALID,914.499,VALID,0,VALID,94.2539,VALID,-0.0509425,VALID,19.8109,VALID,24,VALID,0,
2009-01-01, 03:34:00,VALID,914.481,VALID,0,VALID,94.3658,VALID,-0.0679233,VALID,19.7742,VALID,24,VALID,0,
2009-01-01, 03:35:00,VALID,914.475,VALID,0,VALID,94.3988,VALID,-0.0509425,VALID,19.7774,VALID,24,VALID,0,
2009-01-01, 03:36:00,VALID,914.456,VALID,0,VALID,94.4713,VALID,-0.0509425,VALID,19.7682,VALID,24,VALID,0,
2009-01-01, 03:37:00,VALID,914.445,VALID,0,VALID,94.5209,VALID,-0.0169808,VALID,19.732,VALID,17,VALID,0,
2009-01-01, 03:38:00,VALID,914.426,VALID,0,VALID,94.423,VALID,-0.0169808,VALID,19.7777,VALID,27,VALID,0,
2009-01-01, 03:39:00,VALID,914.391,VALID,0,VALID,94.0886,VALID,-0.0339617,VALID,19.8293,VALID,29,VALID,0,
2009-01-01, 03:40:00,VALID,914.371,VALID,0,VALID,93.9042,VALID,-0.0509425,VALID,19.8523,VALID,29,VALID,0,